Location: Ailingen
(47.6833°N, 9.5000°E)
Time: 07:55:19
(UTC+00:00)

USA 215 - Pass Details

Date: 18 November 2025
Orbit: 1101 x 1106 km, 123.0° (Epoch: 12 December)

Event Time Altitude Azimuth Distance (km) Brightness Sun altitude
Rises 17:45:02 0° 149° (SSE) 3,909 5.9 -20.5°
Reaches altitude 10° 17:47:39 10° 156° (SSE) 2,955 5.3 -20.9°
Maximum altitude 17:53:50 44° 227° (SW) 1,483 4.3 -21.9°
Drops below altitude 10° 18:00:03 10° 298° (WNW) 2,971 6.3 -23.0°
Sets 18:02:42 0° 305° (NW) 3,933 6.9 -23.4°
